This is the latest recevied weather packets stored in our database for station/object DM4XI-13. If no packets are shown the sender has not sent any weather packets the latest 10 day(s).
| Time | Temp. | Humidity | Pressure | Rain* | Wind** | Luminosity | Snow |
|---|---|---|---|---|---|---|---|
| 1777705983 | 16.11° C | 50% | 1021.9 hPa | 0 mm | 0.45 m/s, 179° | 310 W/m² | - |
| 1777705921 | 16.11° C | 50% | 1021.8 hPa | 0 mm | 0.45 m/s, 149° | 293 W/m² | - |
| 1777705861 | 15.56° C | 52% | 1021.8 hPa | 0 mm | 0.45 m/s, 157° | 54 W/m² | - |
| 1777705799 | 15.56° C | 52% | 1021.8 hPa | 0 mm | 0 m/s | 303 W/m² | - |
| 1777705739 | 15.56° C | 51% | 1021.6 hPa | 0 mm | 0 m/s | 301 W/m² | - |
| 1777705677 | 15.56° C | 50% | 1021.7 hPa | 0 mm | 0.45 m/s, 134° | 299 W/m² | - |
| 1777705617 | 15.56° C | 52% | 1021.8 hPa | 0 mm | 0 m/s | 55 W/m² | - |
| 1777705556 | 15.56° C | 52% | 1021.9 hPa | 0 mm | 0 m/s | 293 W/m² | - |
| 1777705494 | 15.56° C | 51% | 1021.9 hPa | 0 mm | 0 m/s | 290 W/m² | - |
| 1777705434 | 15.56° C | 52% | 1021.8 hPa | 0 mm | 0 m/s | 87 W/m² | - |
| 1777705373 | 15° C | 53% | 1021.8 hPa | 0 mm | 0 m/s | 285 W/m² | - |
| 1777705312 | 15° C | 53% | 1021.8 hPa | 0 mm | 0 m/s | 50 W/m² | - |
| 1777705251 | 15° C | 52% | 1021.7 hPa | 0 mm | 0 m/s | 282 W/m² | - |
| 1777705190 | 15° C | 52% | 1021.9 hPa | 0 mm | 0.45 m/s, 98° | 280 W/m² | - |
| 1777705129 | 15° C | 52% | 1021.7 hPa | 0 mm | 0 m/s | 277 W/m² | - |
| 1777705068 | 15° C | 52% | 1021.9 hPa | 0 mm | 0 m/s | 275 W/m² | - |
| 1777705007 | 15° C | 53% | 1021.8 hPa | 0 mm | 0 m/s | 55 W/m² | - |
| 1777704946 | 15° C | 53% | 1021.8 hPa | 0 mm | 0 m/s | 248 W/m² | - |
| 1777704885 | 15° C | 51% | 1021.8 hPa | 0 mm | 0 m/s | 268 W/m² | - |
| 1777704824 | 14.44° C | 52% | 1021.7 hPa | 0 mm | 0.89 m/s, 10° | 266 W/m² | - |
| 1777704762 | 14.44° C | 53% | 1021.7 hPa | 0 mm | 0 m/s | 75 W/m² | - |
| 1777704702 | 14.44° C | 53% | 1021.7 hPa | 0 mm | 0 m/s | 230 W/m² | - |
| 1777704640 | 14.44° C | 52% | 1021.8 hPa | 0 mm | 0 m/s | 209 W/m² | - |
| 1777704580 | 14.44° C | 53% | 1021.9 hPa | 0 mm | 0.45 m/s, 136° | 256 W/m² | - |
| 1777704519 | 14.44° C | 53% | 1021.7 hPa | 0 mm | 0.45 m/s, 125° | 254 W/m² | - |
* Rain latest hour (hover to see other rain measurements)
** Current wind speed in m/s (hover to see current wind gust speed)